Main page


Airports :

Lavan Island, Iran

Lavan Airport

latitude: 26-48-37N, longitude: 53-21-22E, elevation: 23 m

Current weather observation

The report was made 2 hours and 0 minutes ago, at 08:00 UTC
Wind 21 kt from the West
Temperature 24°C
Humidity 41%
Pressure 1011 hPa
Visibility 10 km or more
no clouds below 1500 m and no cumulonimbus

METAR: OIBV 180800Z 27021KT CAVOK 24/10 Q1011

Time: 13:30 (10:00 UTC)

TAF: missing

Weather observations and forecasts of more than 4000 airports (METAR and TAF reports).

The available stations are represented by yellow and red dots on the map.

Hover mouse over dot to see the name of the station.

Then click to see weather observations and forecasts.

To change the map : click on the green buttons with a black cross to zoom in, on the green button with a dash to zoom out, or on the green arrows for adjacent maps.